TimeEST,TemperatureF,Dew PointF,Humidity,Sea Level PressureIn,VisibilityMPH,Wind Direction,Wind SpeedMPH,Gust SpeedMPH,PrecipitationIn,Events,Conditions,WindDirDegrees,DateUTC
12:15 AM,62.8,56.7,80,30.08,10.0,SSW,11.5,-,N/A,,Clear,210,2013-01-14 05:15:00
12:35 AM,62.6,56.7,81,30.08,10.0,SSW,12.7,-,N/A,,Clear,200,2013-01-14 05:35:00
12:55 AM,62.1,56.7,82,30.08,10.0,SSW,12.7,-,N/A,,Clear,210,2013-01-14 05:55:00
1:15 AM,62.1,56.8,83,30.08,10.0,SSW,10.4,-,N/A,,Clear,210,2013-01-14 06:15:00
1:35 AM,62.1,57.2,84,30.08,10.0,SSW,11.5,-,N/A,,Clear,210,2013-01-14 06:35:00
2:15 AM,61.9,57.2,85,30.09,10.0,SSW,11.5,-,N/A,,Clear,210,2013-01-14 07:15:00
2:35 AM,61.7,57.2,85,30.10,10.0,SSW,10.4,-,N/A,,Clear,210,2013-01-14 07:35:00
2:55 AM,61.7,56.8,84,30.10,10.0,SSW,10.4,-,N/A,,Clear,210,2013-01-14 07:55:00
3:15 AM,61.0,56.5,85,30.10,10.0,SSW,9.2,-,N/A,,Clear,210,2013-01-14 08:15:00
3:55 AM,60.4,56.3,86,30.09,10.0,SSW,8.1,-,N/A,,Clear,200,2013-01-14 08:55:00
4:15 AM,59.9,55.9,87,30.09,10.0,SSW,6.9,-,N/A,,Clear,210,2013-01-14 09:15:00
4:35 AM,60.3,56.1,86,30.09,10.0,SSW,8.1,-,N/A,,Clear,210,2013-01-14 09:35:00
4:55 AM,59.7,55.9,87,30.08,10.0,SSW,6.9,-,N/A,,Clear,210,2013-01-14 09:55:00
5:15 AM,60.1,56.3,87,30.08,10.0,SSW,6.9,-,N/A,,Mostly Cloudy,200,2013-01-14 10:15:00
5:35 AM,60.4,55.8,85,30.08,10.0,SSW,9.2,-,N/A,,Overcast,200,2013-01-14 10:35:00
5:55 AM,60.6,55.6,83,30.09,10.0,SSW,9.2,-,N/A,,Overcast,200,2013-01-14 10:55:00
6:15 AM,60.8,55.4,82,30.09,10.0,SSW,8.1,-,N/A,,Overcast,210,2013-01-14 11:15:00
6:35 AM,60.6,55.4,83,30.09,10.0,SSW,10.4,-,N/A,,Overcast,200,2013-01-14 11:35:00
7:15 AM,60.8,55.4,82,30.11,10.0,SSW,8.1,-,N/A,,Overcast,200,2013-01-14 12:15:00
7:35 AM,60.8,55.4,82,30.11,10.0,SSW,9.2,-,N/A,,Overcast,200,2013-01-14 12:35:00
7:55 AM,61.3,55.4,81,30.13,10.0,SSW,8.1,-,N/A,,Overcast,210,2013-01-14 12:55:00
8:15 AM,61.3,55.6,81,30.12,10.0,SSW,8.1,-,N/A,,Mostly Cloudy,200,2013-01-14 13:15:00
8:35 AM,61.7,55.4,80,30.13,10.0,SSW,8.1,-,N/A,,Mostly Cloudy,200,2013-01-14 13:35:00
8:55 AM,62.1,55.4,79,30.13,10.0,South,8.1,-,N/A,,Overcast,190,2013-01-14 13:55:00
9:15 AM,62.1,55.4,79,30.14,10.0,SSW,8.1,-,N/A,,Overcast,200,2013-01-14 14:15:00
9:35 AM,61.9,55.4,79,30.14,10.0,South,8.1,-,N/A,,Overcast,190,2013-01-14 14:35:00
9:55 AM,62.4,55.4,78,30.15,10.0,SSW,9.2,-,N/A,,Overcast,200,2013-01-14 14:55:00
10:15 AM,63.5,55.4,75,30.15,10.0,SSW,9.2,-,N/A,,Overcast,200,2013-01-14 15:15:00
10:35 AM,63.5,55.4,75,30.15,10.0,SW,8.1,-,N/A,,Overcast,220,2013-01-14 15:35:00
10:55 AM,64.2,55.8,74,30.14,10.0,SW,8.1,-,N/A,,Overcast,220,2013-01-14 15:55:00
11:15 AM,64.8,56.5,74,30.13,10.0,SSW,9.2,-,N/A,,Overcast,210,2013-01-14 16:15:00
11:35 AM,64.9,56.7,74,30.12,10.0,SSW,8.1,-,N/A,,Mostly Cloudy,210,2013-01-14 16:35:00
11:55 AM,64.6,56.5,75,30.12,10.0,SW,8.1,-,N/A,,Overcast,220,2013-01-14 16:55:00
12:15 PM,63.3,57.2,80,30.11,7.0,SSW,9.2,-,N/A,Rain,Light Rain,210,2013-01-14 17:15:00
12:35 PM,61.7,58.5,89,30.10,2.5,South,4.6,-,0.06,Rain,Heavy Rain,180,2013-01-14 17:35:00
12:55 PM,61.7,59.2,91,30.09,3.0,Calm,Calm,-,0.09,Rain,Rain,0,2013-01-14 17:55:00
1:15 PM,61.7,59.4,92,30.09,4.0,South,4.6,-,0.01,Rain,Light Rain,180,2013-01-14 18:15:00
1:35 PM,61.7,59.4,92,30.09,7.0,South,6.9,-,0.03,Rain,Light Rain,190,2013-01-14 18:35:00
1:55 PM,61.7,59.4,92,30.09,4.0,South,8.1,-,0.07,Rain,Rain,190,2013-01-14 18:55:00
2:15 PM,61.9,59.9,93,30.09,4.0,South,6.9,-,0.03,Rain,Rain,180,2013-01-14 19:15:00
2:35 PM,62.1,60.3,94,30.10,4.0,South,6.9,-,0.06,Rain,Rain,190,2013-01-14 19:35:00
2:55 PM,62.2,60.4,94,30.10,4.0,South,8.1,-,0.09,Rain,Light Rain,190,2013-01-14 19:55:00
3:15 PM,62.6,60.8,94,30.10,3.0,South,8.1,-,0.01,Rain,Light Rain,190,2013-01-14 20:15:00
3:55 PM,62.6,61.0,94,30.11,3.0,SSW,8.1,-,0.09,Rain,Light Rain,200,2013-01-14 20:55:00
4:15 PM,62.6,61.2,95,30.12,4.0,SW,5.8,-,N/A,,Light Drizzle,220,2013-01-14 21:15:00
4:35 PM,62.6,61.0,94,30.12,4.0,SW,3.5,-,N/A,,Light Drizzle,220,2013-01-14 21:35:00
4:55 PM,62.6,61.0,94,30.13,4.0,SW,3.5,-,N/A,Rain,Light Rain,220,2013-01-14 21:55:00
5:35 PM,61.9,60.4,95,30.14,3.0,Calm,Calm,-,0.01,Rain,Light Rain,0,2013-01-14 22:35:00
5:55 PM,61.7,60.4,96,30.15,3.0,SSW,3.5,-,0.02,Rain,Light Rain,210,2013-01-14 22:55:00
6:15 PM,61.7,60.4,96,30.15,2.5,Calm,Calm,-,0.01,Rain,Light Rain,0,2013-01-14 23:15:00
6:35 PM,61.9,60.8,96,30.14,2.0,Calm,Calm,-,0.03,Rain,Light Rain,0,2013-01-14 23:35:00
6:55 PM,61.2,59.9,96,30.14,0.5,Calm,Calm,-,0.03,Rain,Light Rain,0,2013-01-14 23:55:00
7:15 PM,61.7,60.6,96,30.14,2.0,Calm,Calm,-,0.02,Rain,Light Rain,0,2013-01-15 00:15:00
7:35 PM,61.7,60.4,96,30.13,0.8,Calm,Calm,-,0.03,Rain,Rain,0,2013-01-15 00:35:00
7:55 PM,62.2,61.0,96,30.13,1.8,Calm,Calm,-,0.06,Rain,Light Rain,0,2013-01-15 00:55:00
8:15 PM,62.6,61.3,96,30.13,4.0,Calm,Calm,-,0.02,,Overcast,0,2013-01-15 01:15:00
8:35 PM,61.9,61.0,97,30.12,1.5,Calm,Calm,-,0.03,Rain,Light Rain,0,2013-01-15 01:35:00
8:55 PM,61.3,60.3,96,30.12,0.5,Calm,Calm,-,0.03,Fog,Fog,0,2013-01-15 01:55:00
9:15 PM,61.7,60.6,96,30.12,0.8,Calm,Calm,-,0.01,Rain,Light Rain,0,2013-01-15 02:15:00
9:35 PM,61.7,60.6,96,30.12,0.5,NNE,3.5,-,0.01,Rain,Light Rain,30,2013-01-15 02:35:00
9:55 PM,55.4,54.3,96,30.15,7.0,NNE,15.0,23.0,0.03,Rain,Light Rain,20,2013-01-15 02:55:00
10:15 PM,51.8,50.9,97,30.17,10.0,NW,9.2,20.7,N/A,Rain,Light Rain,320,2013-01-15 03:15:00
10:35 PM,50.9,49.8,96,30.16,10.0,NE,10.4,20.7,N/A,,Light Drizzle,40,2013-01-15 03:35:00
10:55 PM,50.2,49.1,96,30.16,10.0,NNE,11.5,-,N/A,Rain,Light Rain,30,2013-01-15 03:55:00
11:15 PM,49.3,48.2,96,30.19,10.0,NNE,11.5,17.3,N/A,,Light Drizzle,20,2013-01-15 04:15:00
11:35 PM,48.2,46.8,95,30.19,10.0,NNE,12.7,20.7,N/A,Rain,Light Rain,20,2013-01-15 04:35:00
11:55 PM,47.5,46.0,95,30.19,10.0,NNE,10.4,18.4,N/A,Rain,Light Rain,30,2013-01-15 04:55:00